Weather in Glukhari

Russia / Amur Oblast     51°44′43″N   128°04′05″E
temp.,
°C
wind,
m/s
gust,
m/s
humid.,
%
clouds,
%
prec.,
mm/h
press.,
hPa
HPBL,
m
9 may, sun
sun900:00+5ne4979100 0.0 1002375
03:00+5nne3581100 0.0 1003424
06:00+4nne3681100 0.0 1005427
09:00+5nne4573100 0.1 1006512
12:00+8n3458100 0.0 10061049
15:00+9nne335799 0.0 10061266
18:00+9n3356100 0.0 10071109
21:00+8nw2566100 0.0 1008156
10 may, mon
mon1000:00+6nnw2579100 0.3 1009195
03:00+6nw2490100 1.3 1010160
06:00+6nw2589100 0.1 1010234
09:00+7nw2483100 0.1 1011321
12:00+9nw2368100 0.0 1011702
15:00+12n235198 0.1 10111371
18:00+13ne2346100 0.0 1011881
21:00+9se116189 0.0 101210
11 may, tue
tue1100:00+7sw116786 0.0 101310
03:00+6ssw12715 0.0 101310
06:00+7sse226941 0.0 101450
09:00+13sse4647100 0.0 1013640
12:00+16sse5733100 0.0 10111468
15:00+16s6936100 0.0 10091810
18:00+16sse61139100 0.0 10071383
21:00+13sse81558100 0.0 1006957
12 may, wed
wed1200:00+12sse81764100 0.1 1005897
03:00+11sse81565100 0.1 1003772
06:00+9se81682100 2.0 1001977
09:00+9se101987100 5.3 9981531
12:00+9se91888100 4.6 9961758
15:00+13se91368100 5.8 9941785
18:00+10se7127854 1.1 993829
21:00+9se3583100 2.0 994128
13 may, thu
thu1300:00+7s3594100 2.6 994293
03:00+7wsw3891100 4.9 995426
06:00+5w61192100 0.4 998730
09:00+5w61085100 0.6 1000882
12:00+10wnw6106179 0.0 10021452
15:00+16wnw6113290 0.0 10012332
18:00+15nne34395 0.0 1001359
21:00+9e51078100 0.0 1002317